Location: Ore Lake
(42.4733°N, 83.8017°W)
Time: 06:50:45
(UTC-05:00)

Daily predictions for brighter satellites

Satellite Brightness Start Highest point End
(mag) Time Altitude Azimuth Time Altitude Azimuth Time Altitude Azimuth
Ariane Rocket 3.7 17:22:44 10° S 17:27:44 62° WSW 17:32:46 10° NNW
IRS-1A Rocket 4.2 17:23:08 10° SSE 17:28:37 78° ENE 17:34:10 10° NNW
Cosmos 2218 Rocket 4.1 17:24:45 10° N 17:30:59 61° E 17:37:05 10° SSE
SPOT 3 Rocket 3.8 17:29:01 10° SE 17:33:57 47° ENE 17:38:54 10° N
Genesis I 3.6 17:30:43 10° NNW 17:34:29 42° NE 17:38:12 10° ESE
Cosmos 2181 Rocket 4.3 17:29:11 10° S 17:35:33 79° W 17:42:02 10° N
CZ-3B DEB 1.9 17:32:46 10° SW 17:36:03 80° SE 17:44:22 10° NE
BREEZE M DEB (TANK) 4.5 17:25:13 10° SSW 17:36:12 37° SSE 17:39:55 10° E
BREEZE-M DEB (TANK) 4.4 17:27:43 10° W 17:37:27 43° NNW 17:41:44 10° NE
COSMOS 2487 3.4 17:35:20 10° N 17:38:27 27° ENE 17:41:31 10° ESE
Cosmos 1833 Rocket 3.6 17:35:08 10° N 17:39:53 27° NE 17:44:36 10° ESE
USA 32 4.0 17:35:28 10° S 17:40:39 73° E 17:45:52 10° N
CZ-3A R/B 3.5 17:39:03 10° WSW 17:43:30 63° NNW 18:06:15 10° ENE
Cosmos 2082 Rocket 2.8 17:39:49 10° N 17:44:56 33° NE 17:50:01 10° ESE
CZ-2C R/B 4.1 17:40:48 10° N 17:45:14 66° WNW 17:49:42 10° SSW
Abrixas 2.9 17:43:22 10° NW 17:46:13 41° NNE 17:49:02 10° E
USA 116 4.5 17:44:12 10° NNE 17:49:33 64° E 17:54:35 10° S
Cosmos 1544 Rocket 3.7 17:45:42 10° N 17:50:11 84° W 17:54:39 10° S
Cosmos 1743 4.0 17:49:28 10° NNE 17:52:22 20° ENE 17:55:14 10° ESE
Timation 2 Rocket 4.4 17:46:02 10° NNW 17:52:38 48° ENE 17:59:14 10° SE
Cosmos 1500 3.6 17:51:09 10° N 17:54:48 41° ENE 17:58:28 10° SSE
COSMO-SKYMED 1 3.7 17:52:09 10° NE 17:55:39 23° E 17:59:08 10° SSE
BREEZE-M DEB (TANK) 2.7 17:55:54 10° W 17:57:56 30° NNW 17:59:30 15° NE
IDEFIX/ARIANE 42P 2.5 17:55:43 10° SSE 18:00:54 79° ENE 18:06:07 10° N
Cosmos 1975 2.8 17:58:09 10° N 18:02:12 67° E 18:06:12 10° SSE
Cosmos 1484 Rocket 3.4 18:00:04 10° SE 18:03:21 30° ENE 18:06:38 10° N
CZ-4 R/B 1.8 18:01:55 10° S 18:06:04 68° WSW 18:10:11 10° NNW
MSX 3.8 18:01:41 10° SSE 18:07:20 63° ENE 18:13:01 10° N
NOSS 2-1 (D) 4.2 18:04:07 10° S 18:07:29 30° ESE 18:09:43 18° ENE
Thor Agena Rocket 3.6 18:02:22 10° NNE 18:07:37 85° ESE 18:12:53 10° SSW
NOSS 2-1 (C) 4.3 18:04:48 10° S 18:08:10 30° ESE 18:10:22 18° ENE
OE (NEXTSAT) 4.4 18:06:46 10° WSW 18:10:20 86° NNW 18:12:36 21° ENE
Meteor 1-12 Rocket 4.4 18:05:39 10° NNW 18:11:29 82° W 18:17:23 10° S
MOS 1 4.5 18:06:21 10° S 18:12:00 79° WSW 18:17:41 10° NNW
Cosmos 1536 Rocket 3.7 18:07:35 10° S 18:12:04 83° W 18:16:34 10° N
Cosmos 1025 Rocket 4.2 18:08:55 10° SE 18:12:19 23° E 18:13:52 19° ENE
Cosmos 921 Rocket 3.5 18:09:12 10° S 18:13:09 39° E 18:16:16 16° NE
Meteor 1-13 Rocket 4.5 18:09:08 10° SSE 18:14:35 49° E 18:20:10 10° NNE
SMAP 3.3 18:11:42 10° S 18:16:20 72° WSW 18:21:00 10° NNW
ISS -1.3 18:14:04 10° WNW 18:16:31 19° N 18:17:57 15° NNE
SL-8 R/B 3.9 18:14:27 10° WSW 18:19:10 61° NNW 18:22:14 21° NE
SL-24 DEB 4.2 18:14:46 10° N 18:19:31 72° E 18:24:11 10° S
YAOGAN 1 2.9 18:16:44 10° S 18:21:02 68° WSW 18:25:21 10° NNW
Nadezhda 3 Rocket 4.0 18:16:17 10° S 18:22:23 63° E 18:28:35 10° NNE
Meteor 2-21 Rocket 4.4 18:16:27 10° N 18:22:36 62° E 18:28:39 10° SSE
Cosmos 1844 Rocket 4.3 18:18:18 10° WSW 18:23:10 30° NW 18:28:06 10° N
Meteor 2-4 Rocket 4.2 18:20:57 10° SSE 18:25:42 33° E 18:29:02 17° NE
NOSS 2-1 (E) 3.8 18:23:04 10° S 18:26:45 43° ESE 18:28:29 27° ENE
Cosmos 1812 4.3 18:25:47 10° SW 18:29:22 36° WNW 18:32:58 10° N
GRACE-2 3.8 18:27:42 10° SSE 18:30:26 56° E 18:31:04 42° NE
GRACE-1 3.8 18:28:07 10° SSE 18:30:51 58° E 18:31:33 41° NNE
EP 1 4.3 18:28:38 10° SW 18:31:13 68° NW 18:31:55 41° NNE
CZ-3A R/B 4.5 18:17:38 10° W 18:32:53 41° NNW 18:36:53 17° NE
USA 234 3.5 18:37:48 19° NE 18:42:41 64° NW 18:49:07 10° WSW
SKYMED 2 3.4 18:40:12 14° NNE 18:43:55 78° E 18:48:15 10° S
Tiangong 1 0.8 18:43:57 10° WSW 18:46:58 79° S 18:47:00 78° SSE
NOAA 12 4.1 18:46:00 10° SSE 18:51:07 55° ENE 18:56:15 10° N
Cosmos 2297 3.9 18:47:51 10° SSW 18:53:28 72° WNW 18:57:52 17° NNE
FALCON 9 R/B 4.0 18:29:42 10° WSW 18:55:20 57° S 19:00:04 25° ESE
Cosmos 2056 Rocket 3.6 18:51:46 10° S 18:56:58 52° ESE 18:58:18 42° ENE
Cosmos 407 Rocket 4.0 18:53:00 10° N 18:57:10 38° NE 18:57:10 38° NE
NOSS 3-4 (A) 3.7 18:51:11 10° NNW 18:58:08 64° NE 19:03:39 19° SE
NOSS 3-4 (C) 3.8 18:51:17 10° NNW 18:58:14 64° NE 19:03:37 20° SE
Okean 1-7 Rocket 3.8 18:54:01 10° SSW 18:58:31 72° W 19:02:25 14° N
Cosmos 1346 Rocket 4.3 18:55:06 10° SW 18:58:42 35° WNW 19:02:17 10° N
Cosmos 2278 Rocket 3.8 18:59:32 10° WSW 19:04:29 30° NW 19:09:28 10° N
Timation 1 Rocket 4.5 18:58:45 10° SSW 19:04:42 74° WNW 19:08:38 23° NNE
Cosmos 1624 Rocket 3.8 19:04:59 10° SSW 19:10:09 75° ESE 19:11:26 51° NE
Cosmos 1934 Rocket 3.9 19:04:11 10° N 19:10:25 80° E 19:16:43 10° S
METEOR-M 4.0 19:05:11 10° SSE 19:10:29 70° ENE 19:15:49 10° N
Cosmos 1371 Rocket 4.1 19:10:11 10° SSW 19:15:33 81° WNW 19:17:49 36° NNE
Meteor 2-8 Rocket 4.3 19:14:38 10° S 19:20:43 82° E 19:24:52 22° N
Cosmos 1833 Rocket 3.6 19:18:38 10° NW 19:24:03 49° WSW 19:29:26 10° S
GEOS 3 Rocket 3.4 19:23:58 60° SE 19:24:57 89° NE 19:30:06 10° NW
Cosmos 1606 Rocket 3.7 19:22:22 10° NNW 19:26:51 73° W 19:31:18 10° S
Cosmos 2082 Rocket 3.6 19:23:51 10° NW 19:29:02 38° WSW 19:34:13 10° S
COSMO-SKYMED 1 4.2 19:28:48 15° NNW 19:31:50 32° WNW 19:35:41 10° SW
Cosmos 1190 Rocket 4.3 19:42:31 10° NNW 19:47:42 63° WSW 19:47:50 62° WSW
Cosmos 1605 Rocket 4.1 19:45:44 10° NNW 19:52:01 71° W 19:58:09 10° S
Cosmos 2369 Rocket 4.2 20:03:15 10° SSW 20:04:40 18° SSW 20:04:40 18° SSW
CZ-3B DEB 4.1 20:06:05 10° WNW 20:12:06 41° N 20:13:40 39° NNE
